<?xml version="1.0" encoding="UTF-8" standalone="no" ?>
<gpx xmlns="http://www.topografix.com/GPX/1/1" xmlns:xsi="http://www.w3.org/2001/XMLSchema-instance" xsi:schemaLocation="http://www.topografix.com/GPX/1/1 http://www.topografix.com/GPX/1/1/gpx.xsd" version="1.1" creator="VisuGPX - https://www.visugpx.com">
  <metadata>
    <name>La 1000D Suisse Normande Trail - La 1000 D+</name>
  </metadata>
  <trk>
    <name><![CDATA[La 1000D Suisse Normande Trail - La 1000 D+]]></name>
    <trkseg>
      <trkpt lat="48.90896" lon="-0.46971">
        <ele>44</ele>
        <time>2022-06-17T19:17:01Z</time>
      </trkpt>
      <trkpt lat="48.90894" lon="-0.47018">
        <ele>45</ele>
        <time>2022-06-17T19:17:01Z</time>
      </trkpt>
      <trkpt lat="48.90889" lon="-0.47064">
        <ele>47</ele>
        <time>2022-06-17T19:17:01Z</time>
      </trkpt>
      <trkpt lat="48.90876" lon="-0.47103">
        <ele>48</ele>
        <time>2022-06-17T19:17:01Z</time>
      </trkpt>
      <trkpt lat="48.90839" lon="-0.47099">
        <ele>52</ele>
        <time>2022-06-17T19:17:01Z</time>
      </trkpt>
      <trkpt lat="48.90783" lon="-0.47065">
        <ele>53</ele>
        <time>2022-06-17T19:17:01Z</time>
      </trkpt>
      <trkpt lat="48.90707" lon="-0.47003">
        <ele>57</ele>
        <time>2022-06-17T19:17:01Z</time>
      </trkpt>
      <trkpt lat="48.90681" lon="-0.46975">
        <ele>59</ele>
        <time>2022-06-17T19:17:01Z</time>
      </trkpt>
      <trkpt lat="48.90665" lon="-0.47097">
        <ele>50</ele>
        <time>2022-06-17T19:17:01Z</time>
      </trkpt>
      <trkpt lat="48.90594" lon="-0.47144">
        <ele>50</ele>
        <time>2022-06-17T19:17:01Z</time>
      </trkpt>
      <trkpt lat="48.90551" lon="-0.47208">
        <ele>53</ele>
        <time>2022-06-17T19:17:01Z</time>
      </trkpt>
      <trkpt lat="48.90512" lon="-0.47237">
        <ele>55</ele>
        <time>2022-06-17T19:17:01Z</time>
      </trkpt>
      <trkpt lat="48.90492" lon="-0.47263">
        <ele>56</ele>
        <time>2022-06-17T19:17:01Z</time>
      </trkpt>
      <trkpt lat="48.90515" lon="-0.47312">
        <ele>57</ele>
        <time>2022-06-17T19:17:01Z</time>
      </trkpt>
      <trkpt lat="48.90537" lon="-0.47344">
        <ele>59</ele>
        <time>2022-06-17T19:17:01Z</time>
      </trkpt>
      <trkpt lat="48.90575" lon="-0.47306">
        <ele>57</ele>
        <time>2022-06-17T19:17:01Z</time>
      </trkpt>
      <trkpt lat="48.90611" lon="-0.47287">
        <ele>56</ele>
        <time>2022-06-17T19:17:01Z</time>
      </trkpt>
      <trkpt lat="48.90677" lon="-0.47274">
        <ele>55</ele>
        <time>2022-06-17T19:17:01Z</time>
      </trkpt>
      <trkpt lat="48.90717" lon="-0.47372">
        <ele>58</ele>
        <time>2022-06-17T19:17:01Z</time>
      </trkpt>
      <trkpt lat="48.9072" lon="-0.4742">
        <ele>61</ele>
        <time>2022-06-17T19:17:01Z</time>
      </trkpt>
      <trkpt lat="48.90736" lon="-0.47573">
        <ele>73</ele>
        <time>2022-06-17T19:17:01Z</time>
      </trkpt>
      <trkpt lat="48.9077" lon="-0.47672">
        <ele>91</ele>
        <time>2022-06-17T19:17:01Z</time>
      </trkpt>
      <trkpt lat="48.90812" lon="-0.47782">
        <ele>110</ele>
        <time>2022-06-17T19:17:01Z</time>
      </trkpt>
      <trkpt lat="48.90821" lon="-0.47824">
        <ele>115</ele>
        <time>2022-06-17T19:17:01Z</time>
      </trkpt>
      <trkpt lat="48.90838" lon="-0.47874">
        <ele>118</ele>
        <time>2022-06-17T19:17:01Z</time>
      </trkpt>
      <trkpt lat="48.90674" lon="-0.48055">
        <ele>133</ele>
        <time>2022-06-17T19:17:01Z</time>
      </trkpt>
      <trkpt lat="48.90796" lon="-0.48136">
        <ele>117</ele>
        <time>2022-06-17T19:17:01Z</time>
      </trkpt>
      <trkpt lat="48.90823" lon="-0.48154">
        <ele>113</ele>
        <time>2022-06-17T19:17:01Z</time>
      </trkpt>
      <trkpt lat="48.9085" lon="-0.48174">
        <ele>109</ele>
        <time>2022-06-17T19:17:01Z</time>
      </trkpt>
      <trkpt lat="48.90911" lon="-0.48205">
        <ele>100</ele>
        <time>2022-06-17T19:17:01Z</time>
      </trkpt>
      <trkpt lat="48.90951" lon="-0.48221">
        <ele>96</ele>
        <time>2022-06-17T19:17:01Z</time>
      </trkpt>
      <trkpt lat="48.90996" lon="-0.48253">
        <ele>93</ele>
        <time>2022-06-17T19:17:01Z</time>
      </trkpt>
      <trkpt lat="48.91022" lon="-0.48276">
        <ele>94</ele>
        <time>2022-06-17T19:17:01Z</time>
      </trkpt>
      <trkpt lat="48.91055" lon="-0.48287">
        <ele>94</ele>
        <time>2022-06-17T19:17:01Z</time>
      </trkpt>
      <trkpt lat="48.91139" lon="-0.48335">
        <ele>99</ele>
        <time>2022-06-17T19:17:01Z</time>
      </trkpt>
      <trkpt lat="48.91164" lon="-0.48352">
        <ele>100</ele>
        <time>2022-06-17T19:17:01Z</time>
      </trkpt>
      <trkpt lat="48.9119" lon="-0.48365">
        <ele>98</ele>
        <time>2022-06-17T19:17:01Z</time>
      </trkpt>
      <trkpt lat="48.91254" lon="-0.4837">
        <ele>94</ele>
        <time>2022-06-17T19:17:01Z</time>
      </trkpt>
      <trkpt lat="48.91295" lon="-0.48382">
        <ele>89</ele>
        <time>2022-06-17T19:17:01Z</time>
      </trkpt>
      <trkpt lat="48.9132" lon="-0.48379">
        <ele>87</ele>
        <time>2022-06-17T19:17:01Z</time>
      </trkpt>
      <trkpt lat="48.91398" lon="-0.48396">
        <ele>77</ele>
        <time>2022-06-17T19:17:01Z</time>
      </trkpt>
      <trkpt lat="48.91434" lon="-0.48358">
        <ele>74</ele>
        <time>2022-06-17T19:17:01Z</time>
      </trkpt>
      <trkpt lat="48.91453" lon="-0.4828">
        <ele>77</ele>
        <time>2022-06-17T19:17:01Z</time>
      </trkpt>
      <trkpt lat="48.91466" lon="-0.48199">
        <ele>81</ele>
        <time>2022-06-17T19:17:01Z</time>
      </trkpt>
      <trkpt lat="48.9148" lon="-0.47989">
        <ele>87</ele>
        <time>2022-06-17T19:17:01Z</time>
      </trkpt>
      <trkpt lat="48.91489" lon="-0.47947">
        <ele>84</ele>
        <time>2022-06-17T19:17:01Z</time>
      </trkpt>
      <trkpt lat="48.91507" lon="-0.47908">
        <ele>81</ele>
        <time>2022-06-17T19:17:01Z</time>
      </trkpt>
      <trkpt lat="48.91528" lon="-0.47878">
        <ele>78</ele>
        <time>2022-06-17T19:17:01Z</time>
      </trkpt>
      <trkpt lat="48.91661" lon="-0.47797">
        <ele>63</ele>
        <time>2022-06-17T19:17:01Z</time>
      </trkpt>
      <trkpt lat="48.91639" lon="-0.4773">
        <ele>57</ele>
        <time>2022-06-17T19:17:01Z</time>
      </trkpt>
      <trkpt lat="48.91637" lon="-0.4766">
        <ele>46</ele>
        <time>2022-06-17T19:17:01Z</time>
      </trkpt>
      <trkpt lat="48.91653" lon="-0.47449">
        <ele>36</ele>
        <time>2022-06-17T19:17:01Z</time>
      </trkpt>
      <trkpt lat="48.91675" lon="-0.47346">
        <ele>38</ele>
        <time>2022-06-17T19:17:01Z</time>
      </trkpt>
      <trkpt lat="48.91695" lon="-0.47284">
        <ele>41</ele>
        <time>2022-06-17T19:17:01Z</time>
      </trkpt>
      <trkpt lat="48.91711" lon="-0.47245">
        <ele>42</ele>
        <time>2022-06-17T19:17:01Z</time>
      </trkpt>
      <trkpt lat="48.91712" lon="-0.47199">
        <ele>44</ele>
        <time>2022-06-17T19:17:01Z</time>
      </trkpt>
      <trkpt lat="48.91715" lon="-0.47164">
        <ele>46</ele>
        <time>2022-06-17T19:17:01Z</time>
      </trkpt>
      <trkpt lat="48.91724" lon="-0.47132">
        <ele>47</ele>
        <time>2022-06-17T19:17:01Z</time>
      </trkpt>
      <trkpt lat="48.91741" lon="-0.47102">
        <ele>49</ele>
        <time>2022-06-17T19:17:01Z</time>
      </trkpt>
      <trkpt lat="48.91765" lon="-0.47048">
        <ele>54</ele>
        <time>2022-06-17T19:17:01Z</time>
      </trkpt>
      <trkpt lat="48.91807" lon="-0.4703">
        <ele>61</ele>
        <time>2022-06-17T19:17:01Z</time>
      </trkpt>
      <trkpt lat="48.91843" lon="-0.46976">
        <ele>71</ele>
        <time>2022-06-17T19:17:01Z</time>
      </trkpt>
      <trkpt lat="48.91887" lon="-0.46894">
        <ele>86</ele>
        <time>2022-06-17T19:17:01Z</time>
      </trkpt>
      <trkpt lat="48.91919" lon="-0.46803">
        <ele>104</ele>
        <time>2022-06-17T19:17:01Z</time>
      </trkpt>
      <trkpt lat="48.9194" lon="-0.46717">
        <ele>121</ele>
        <time>2022-06-17T19:17:01Z</time>
      </trkpt>
      <trkpt lat="48.91946" lon="-0.46611">
        <ele>137</ele>
        <time>2022-06-17T19:17:01Z</time>
      </trkpt>
      <trkpt lat="48.91966" lon="-0.46528">
        <ele>147</ele>
        <time>2022-06-17T19:17:01Z</time>
      </trkpt>
      <trkpt lat="48.9198" lon="-0.46486">
        <ele>152</ele>
        <time>2022-06-17T19:17:01Z</time>
      </trkpt>
      <trkpt lat="48.91999" lon="-0.46458">
        <ele>159</ele>
        <time>2022-06-17T19:17:01Z</time>
      </trkpt>
      <trkpt lat="48.92011" lon="-0.46423">
        <ele>163</ele>
        <time>2022-06-17T19:17:01Z</time>
      </trkpt>
      <trkpt lat="48.92032" lon="-0.46381">
        <ele>171</ele>
        <time>2022-06-17T19:17:01Z</time>
      </trkpt>
      <trkpt lat="48.92078" lon="-0.46332">
        <ele>185</ele>
        <time>2022-06-17T19:17:01Z</time>
      </trkpt>
      <trkpt lat="48.92109" lon="-0.46255">
        <ele>195</ele>
        <time>2022-06-17T19:17:01Z</time>
      </trkpt>
      <trkpt lat="48.92135" lon="-0.46208">
        <ele>204</ele>
        <time>2022-06-17T19:17:01Z</time>
      </trkpt>
      <trkpt lat="48.92189" lon="-0.46155">
        <ele>220</ele>
        <time>2022-06-17T19:17:01Z</time>
      </trkpt>
      <trkpt lat="48.92292" lon="-0.46112">
        <ele>243</ele>
        <time>2022-06-17T19:17:01Z</time>
      </trkpt>
      <trkpt lat="48.9231" lon="-0.46204">
        <ele>241</ele>
        <time>2022-06-17T19:17:01Z</time>
      </trkpt>
      <trkpt lat="48.9234" lon="-0.46262">
        <ele>240</ele>
        <time>2022-06-17T19:17:01Z</time>
      </trkpt>
      <trkpt lat="48.92366" lon="-0.4629">
        <ele>236</ele>
        <time>2022-06-17T19:17:01Z</time>
      </trkpt>
      <trkpt lat="48.9243" lon="-0.46321">
        <ele>234</ele>
        <time>2022-06-17T19:17:01Z</time>
      </trkpt>
      <trkpt lat="48.92477" lon="-0.46332">
        <ele>234</ele>
        <time>2022-06-17T19:17:01Z</time>
      </trkpt>
      <trkpt lat="48.92515" lon="-0.46349">
        <ele>233</ele>
        <time>2022-06-17T19:17:01Z</time>
      </trkpt>
      <trkpt lat="48.92544" lon="-0.46375">
        <ele>231</ele>
        <time>2022-06-17T19:17:01Z</time>
      </trkpt>
      <trkpt lat="48.92554" lon="-0.46416">
        <ele>228</ele>
        <time>2022-06-17T19:17:01Z</time>
      </trkpt>
      <trkpt lat="48.92549" lon="-0.46471">
        <ele>224</ele>
        <time>2022-06-17T19:17:01Z</time>
      </trkpt>
      <trkpt lat="48.9255" lon="-0.46506">
        <ele>221</ele>
        <time>2022-06-17T19:17:01Z</time>
      </trkpt>
      <trkpt lat="48.92561" lon="-0.46553">
        <ele>219</ele>
        <time>2022-06-17T19:17:01Z</time>
      </trkpt>
      <trkpt lat="48.92581" lon="-0.46596">
        <ele>217</ele>
        <time>2022-06-17T19:17:01Z</time>
      </trkpt>
      <trkpt lat="48.92616" lon="-0.4663">
        <ele>213</ele>
        <time>2022-06-17T19:17:01Z</time>
      </trkpt>
      <trkpt lat="48.92727" lon="-0.46682">
        <ele>214</ele>
        <time>2022-06-17T19:17:01Z</time>
      </trkpt>
      <trkpt lat="48.92777" lon="-0.46683">
        <ele>218</ele>
        <time>2022-06-17T19:17:01Z</time>
      </trkpt>
      <trkpt lat="48.92868" lon="-0.46696">
        <ele>222</ele>
        <time>2022-06-17T19:17:01Z</time>
      </trkpt>
      <trkpt lat="48.92904" lon="-0.46714">
        <ele>223</ele>
        <time>2022-06-17T19:17:01Z</time>
      </trkpt>
      <trkpt lat="48.9298" lon="-0.46943">
        <ele>209</ele>
        <time>2022-06-17T19:17:01Z</time>
      </trkpt>
      <trkpt lat="48.93029" lon="-0.47015">
        <ele>214</ele>
        <time>2022-06-17T19:17:01Z</time>
      </trkpt>
      <trkpt lat="48.93068" lon="-0.47076">
        <ele>214</ele>
        <time>2022-06-17T19:17:01Z</time>
      </trkpt>
      <trkpt lat="48.93066" lon="-0.47273">
        <ele>194</ele>
        <time>2022-06-17T19:17:01Z</time>
      </trkpt>
      <trkpt lat="48.93076" lon="-0.47321">
        <ele>192</ele>
        <time>2022-06-17T19:17:01Z</time>
      </trkpt>
      <trkpt lat="48.93142" lon="-0.47401">
        <ele>192</ele>
        <time>2022-06-17T19:17:01Z</time>
      </trkpt>
      <trkpt lat="48.93126" lon="-0.47453">
        <ele>184</ele>
        <time>2022-06-17T19:17:01Z</time>
      </trkpt>
      <trkpt lat="48.93066" lon="-0.47507">
        <ele>167</ele>
        <time>2022-06-17T19:17:01Z</time>
      </trkpt>
      <trkpt lat="48.93044" lon="-0.47545">
        <ele>160</ele>
        <time>2022-06-17T19:17:01Z</time>
      </trkpt>
      <trkpt lat="48.93022" lon="-0.47601">
        <ele>156</ele>
        <time>2022-06-17T19:17:01Z</time>
      </trkpt>
      <trkpt lat="48.9299" lon="-0.47621">
        <ele>152</ele>
        <time>2022-06-17T19:17:01Z</time>
      </trkpt>
      <trkpt lat="48.92968" lon="-0.47642">
        <ele>144</ele>
        <time>2022-06-17T19:17:01Z</time>
      </trkpt>
      <trkpt lat="48.92928" lon="-0.47715">
        <ele>131</ele>
        <time>2022-06-17T19:17:01Z</time>
      </trkpt>
      <trkpt lat="48.92913" lon="-0.47761">
        <ele>125</ele>
        <time>2022-06-17T19:17:01Z</time>
      </trkpt>
      <trkpt lat="48.9291" lon="-0.4782">
        <ele>111</ele>
        <time>2022-06-17T19:17:01Z</time>
      </trkpt>
      <trkpt lat="48.92912" lon="-0.47859">
        <ele>102</ele>
        <time>2022-06-17T19:17:01Z</time>
      </trkpt>
      <trkpt lat="48.92936" lon="-0.47894">
        <ele>98</ele>
        <time>2022-06-17T19:17:01Z</time>
      </trkpt>
      <trkpt lat="48.9296" lon="-0.47893">
        <ele>104</ele>
        <time>2022-06-17T19:17:01Z</time>
      </trkpt>
      <trkpt lat="48.92992" lon="-0.47878">
        <ele>111</ele>
        <time>2022-06-17T19:17:01Z</time>
      </trkpt>
      <trkpt lat="48.93023" lon="-0.47829">
        <ele>121</ele>
        <time>2022-06-17T19:17:01Z</time>
      </trkpt>
      <trkpt lat="48.93041" lon="-0.47775">
        <ele>129</ele>
        <time>2022-06-17T19:17:01Z</time>
      </trkpt>
      <trkpt lat="48.93079" lon="-0.47785">
        <ele>131</ele>
        <time>2022-06-17T19:17:01Z</time>
      </trkpt>
      <trkpt lat="48.93108" lon="-0.47808">
        <ele>140</ele>
        <time>2022-06-17T19:17:01Z</time>
      </trkpt>
      <trkpt lat="48.93124" lon="-0.47833">
        <ele>146</ele>
        <time>2022-06-17T19:17:01Z</time>
      </trkpt>
      <trkpt lat="48.93174" lon="-0.47881">
        <ele>163</ele>
        <time>2022-06-17T19:17:01Z</time>
      </trkpt>
      <trkpt lat="48.93188" lon="-0.47838">
        <ele>163</ele>
        <time>2022-06-17T19:17:01Z</time>
      </trkpt>
      <trkpt lat="48.93178" lon="-0.47797">
        <ele>159</ele>
        <time>2022-06-17T19:17:01Z</time>
      </trkpt>
      <trkpt lat="48.93184" lon="-0.47748">
        <ele>159</ele>
        <time>2022-06-17T19:17:01Z</time>
      </trkpt>
      <trkpt lat="48.9321" lon="-0.47709">
        <ele>164</ele>
        <time>2022-06-17T19:17:01Z</time>
      </trkpt>
      <trkpt lat="48.93289" lon="-0.47712">
        <ele>177</ele>
        <time>2022-06-17T19:17:01Z</time>
      </trkpt>
      <trkpt lat="48.93362" lon="-0.47745">
        <ele>181</ele>
        <time>2022-06-17T19:17:01Z</time>
      </trkpt>
      <trkpt lat="48.93371" lon="-0.47708">
        <ele>181</ele>
        <time>2022-06-17T19:17:01Z</time>
      </trkpt>
      <trkpt lat="48.93365" lon="-0.47638">
        <ele>182</ele>
        <time>2022-06-17T19:17:01Z</time>
      </trkpt>
      <trkpt lat="48.93372" lon="-0.47557">
        <ele>185</ele>
        <time>2022-06-17T19:17:01Z</time>
      </trkpt>
      <trkpt lat="48.93374" lon="-0.47496">
        <ele>189</ele>
        <time>2022-06-17T19:17:01Z</time>
      </trkpt>
      <trkpt lat="48.93372" lon="-0.47457">
        <ele>191</ele>
        <time>2022-06-17T19:17:01Z</time>
      </trkpt>
      <trkpt lat="48.93353" lon="-0.47387">
        <ele>197</ele>
        <time>2022-06-17T19:17:01Z</time>
      </trkpt>
      <trkpt lat="48.93424" lon="-0.47076">
        <ele>211</ele>
        <time>2022-06-17T19:17:01Z</time>
      </trkpt>
      <trkpt lat="48.93388" lon="-0.47052">
        <ele>213</ele>
        <time>2022-06-17T19:17:01Z</time>
      </trkpt>
      <trkpt lat="48.93263" lon="-0.46932">
        <ele>220</ele>
        <time>2022-06-17T19:17:01Z</time>
      </trkpt>
      <trkpt lat="48.9322" lon="-0.46868">
        <ele>224</ele>
        <time>2022-06-17T19:17:01Z</time>
      </trkpt>
      <trkpt lat="48.93199" lon="-0.46819">
        <ele>226</ele>
        <time>2022-06-17T19:17:01Z</time>
      </trkpt>
      <trkpt lat="48.93186" lon="-0.46761">
        <ele>227</ele>
        <time>2022-06-17T19:17:01Z</time>
      </trkpt>
      <trkpt lat="48.93345" lon="-0.46594">
        <ele>224</ele>
        <time>2022-06-17T19:17:01Z</time>
      </trkpt>
      <trkpt lat="48.93376" lon="-0.46548">
        <ele>221</ele>
        <time>2022-06-17T19:17:01Z</time>
      </trkpt>
      <trkpt lat="48.93412" lon="-0.46549">
        <ele>218</ele>
        <time>2022-06-17T19:17:01Z</time>
      </trkpt>
      <trkpt lat="48.93438" lon="-0.46574">
        <ele>216</ele>
        <time>2022-06-17T19:17:01Z</time>
      </trkpt>
      <trkpt lat="48.93507" lon="-0.46686">
        <ele>209</ele>
        <time>2022-06-17T19:17:01Z</time>
      </trkpt>
      <trkpt lat="48.9353" lon="-0.46741">
        <ele>206</ele>
        <time>2022-06-17T19:17:01Z</time>
      </trkpt>
      <trkpt lat="48.93559" lon="-0.46799">
        <ele>200</ele>
        <time>2022-06-17T19:17:01Z</time>
      </trkpt>
      <trkpt lat="48.93581" lon="-0.46823">
        <ele>197</ele>
        <time>2022-06-17T19:17:01Z</time>
      </trkpt>
      <trkpt lat="48.93603" lon="-0.46795">
        <ele>198</ele>
        <time>2022-06-17T19:17:01Z</time>
      </trkpt>
      <trkpt lat="48.93672" lon="-0.46758">
        <ele>198</ele>
        <time>2022-06-17T19:17:01Z</time>
      </trkpt>
      <trkpt lat="48.93728" lon="-0.46716">
        <ele>198</ele>
        <time>2022-06-17T19:17:01Z</time>
      </trkpt>
      <trkpt lat="48.93771" lon="-0.46662">
        <ele>196</ele>
        <time>2022-06-17T19:17:01Z</time>
      </trkpt>
      <trkpt lat="48.93875" lon="-0.46466">
        <ele>171</ele>
        <time>2022-06-17T19:17:01Z</time>
      </trkpt>
      <trkpt lat="48.93899" lon="-0.46427">
        <ele>165</ele>
        <time>2022-06-17T19:17:01Z</time>
      </trkpt>
      <trkpt lat="48.93927" lon="-0.46392">
        <ele>159</ele>
        <time>2022-06-17T19:17:01Z</time>
      </trkpt>
      <trkpt lat="48.93951" lon="-0.46271">
        <ele>145</ele>
        <time>2022-06-17T19:17:01Z</time>
      </trkpt>
      <trkpt lat="48.93973" lon="-0.4619">
        <ele>136</ele>
        <time>2022-06-17T19:17:01Z</time>
      </trkpt>
      <trkpt lat="48.94038" lon="-0.46275">
        <ele>127</ele>
        <time>2022-06-17T19:17:01Z</time>
      </trkpt>
      <trkpt lat="48.9407" lon="-0.4629">
        <ele>119</ele>
        <time>2022-06-17T19:17:01Z</time>
      </trkpt>
      <trkpt lat="48.94095" lon="-0.46312">
        <ele>114</ele>
        <time>2022-06-17T19:17:01Z</time>
      </trkpt>
      <trkpt lat="48.94125" lon="-0.46315">
        <ele>106</ele>
        <time>2022-06-17T19:17:01Z</time>
      </trkpt>
      <trkpt lat="48.94146" lon="-0.46335">
        <ele>101</ele>
        <time>2022-06-17T19:17:01Z</time>
      </trkpt>
      <trkpt lat="48.94138" lon="-0.46285">
        <ele>103</ele>
        <time>2022-06-17T19:17:01Z</time>
      </trkpt>
      <trkpt lat="48.94156" lon="-0.46261">
        <ele>100</ele>
        <time>2022-06-17T19:17:01Z</time>
      </trkpt>
      <trkpt lat="48.94175" lon="-0.46132">
        <ele>109</ele>
        <time>2022-06-17T19:17:01Z</time>
      </trkpt>
      <trkpt lat="48.94235" lon="-0.45916">
        <ele>114</ele>
        <time>2022-06-17T19:17:01Z</time>
      </trkpt>
      <trkpt lat="48.94223" lon="-0.4582">
        <ele>118</ele>
        <time>2022-06-17T19:17:01Z</time>
      </trkpt>
      <trkpt lat="48.94179" lon="-0.45721">
        <ele>119</ele>
        <time>2022-06-17T19:17:01Z</time>
      </trkpt>
      <trkpt lat="48.94034" lon="-0.45416">
        <ele>129</ele>
        <time>2022-06-17T19:17:01Z</time>
      </trkpt>
      <trkpt lat="48.94031" lon="-0.45497">
        <ele>138</ele>
        <time>2022-06-17T19:17:01Z</time>
      </trkpt>
      <trkpt lat="48.94044" lon="-0.45573">
        <ele>140</ele>
        <time>2022-06-17T19:17:01Z</time>
      </trkpt>
      <trkpt lat="48.94067" lon="-0.45651">
        <ele>140</ele>
        <time>2022-06-17T19:17:01Z</time>
      </trkpt>
      <trkpt lat="48.93987" lon="-0.45539">
        <ele>155</ele>
        <time>2022-06-17T19:17:01Z</time>
      </trkpt>
      <trkpt lat="48.93916" lon="-0.45398">
        <ele>169</ele>
        <time>2022-06-17T19:17:01Z</time>
      </trkpt>
      <trkpt lat="48.93871" lon="-0.45279">
        <ele>171</ele>
        <time>2022-06-17T19:17:01Z</time>
      </trkpt>
      <trkpt lat="48.93833" lon="-0.45125">
        <ele>174</ele>
        <time>2022-06-17T19:17:01Z</time>
      </trkpt>
      <trkpt lat="48.9381" lon="-0.45103">
        <ele>177</ele>
        <time>2022-06-17T19:17:01Z</time>
      </trkpt>
      <trkpt lat="48.93774" lon="-0.45085">
        <ele>184</ele>
        <time>2022-06-17T19:17:01Z</time>
      </trkpt>
      <trkpt lat="48.93766" lon="-0.4502">
        <ele>187</ele>
        <time>2022-06-17T19:17:01Z</time>
      </trkpt>
      <trkpt lat="48.93774" lon="-0.44964">
        <ele>187</ele>
        <time>2022-06-17T19:17:01Z</time>
      </trkpt>
      <trkpt lat="48.93647" lon="-0.45097">
        <ele>207</ele>
        <time>2022-06-17T19:17:01Z</time>
      </trkpt>
      <trkpt lat="48.93621" lon="-0.45129">
        <ele>210</ele>
        <time>2022-06-17T19:17:01Z</time>
      </trkpt>
      <trkpt lat="48.93539" lon="-0.45152">
        <ele>219</ele>
        <time>2022-06-17T19:17:01Z</time>
      </trkpt>
      <trkpt lat="48.93458" lon="-0.45155">
        <ele>227</ele>
        <time>2022-06-17T19:17:01Z</time>
      </trkpt>
      <trkpt lat="48.93427" lon="-0.45163">
        <ele>231</ele>
        <time>2022-06-17T19:17:01Z</time>
      </trkpt>
      <trkpt lat="48.93377" lon="-0.45185">
        <ele>235</ele>
        <time>2022-06-17T19:17:01Z</time>
      </trkpt>
      <trkpt lat="48.93307" lon="-0.45224">
        <ele>235</ele>
        <time>2022-06-17T19:17:01Z</time>
      </trkpt>
      <trkpt lat="48.93277" lon="-0.45276">
        <ele>230</ele>
        <time>2022-06-17T19:17:01Z</time>
      </trkpt>
      <trkpt lat="48.93121" lon="-0.45361">
        <ele>210</ele>
        <time>2022-06-17T19:17:01Z</time>
      </trkpt>
      <trkpt lat="48.93065" lon="-0.45384">
        <ele>203</ele>
        <time>2022-06-17T19:17:01Z</time>
      </trkpt>
      <trkpt lat="48.9303" lon="-0.45387">
        <ele>198</ele>
        <time>2022-06-17T19:17:01Z</time>
      </trkpt>
      <trkpt lat="48.93005" lon="-0.45367">
        <ele>196</ele>
        <time>2022-06-17T19:17:01Z</time>
      </trkpt>
      <trkpt lat="48.92987" lon="-0.45319">
        <ele>199</ele>
        <time>2022-06-17T19:17:01Z</time>
      </trkpt>
      <trkpt lat="48.92957" lon="-0.45335">
        <ele>200</ele>
        <time>2022-06-17T19:17:01Z</time>
      </trkpt>
      <trkpt lat="48.92936" lon="-0.45413">
        <ele>198</ele>
        <time>2022-06-17T19:17:01Z</time>
      </trkpt>
      <trkpt lat="48.92874" lon="-0.45438">
        <ele>202</ele>
        <time>2022-06-17T19:17:01Z</time>
      </trkpt>
      <trkpt lat="48.9283" lon="-0.45453">
        <ele>204</ele>
        <time>2022-06-17T19:17:01Z</time>
      </trkpt>
      <trkpt lat="48.92783" lon="-0.45458">
        <ele>208</ele>
        <time>2022-06-17T19:17:01Z</time>
      </trkpt>
      <trkpt lat="48.92656" lon="-0.45437">
        <ele>220</ele>
        <time>2022-06-17T19:17:01Z</time>
      </trkpt>
      <trkpt lat="48.92627" lon="-0.45485">
        <ele>220</ele>
        <time>2022-06-17T19:17:01Z</time>
      </trkpt>
      <trkpt lat="48.92589" lon="-0.45433">
        <ele>223</ele>
        <time>2022-06-17T19:17:01Z</time>
      </trkpt>
      <trkpt lat="48.92563" lon="-0.4539">
        <ele>225</ele>
        <time>2022-06-17T19:17:01Z</time>
      </trkpt>
      <trkpt lat="48.92535" lon="-0.45327">
        <ele>227</ele>
        <time>2022-06-17T19:17:01Z</time>
      </trkpt>
      <trkpt lat="48.92571" lon="-0.45249">
        <ele>230</ele>
        <time>2022-06-17T19:17:01Z</time>
      </trkpt>
      <trkpt lat="48.92567" lon="-0.45156">
        <ele>235</ele>
        <time>2022-06-17T19:17:01Z</time>
      </trkpt>
      <trkpt lat="48.92561" lon="-0.45113">
        <ele>237</ele>
        <time>2022-06-17T19:17:01Z</time>
      </trkpt>
      <trkpt lat="48.92546" lon="-0.45036">
        <ele>239</ele>
        <time>2022-06-17T19:17:01Z</time>
      </trkpt>
      <trkpt lat="48.92538" lon="-0.44952">
        <ele>240</ele>
        <time>2022-06-17T19:17:01Z</time>
      </trkpt>
      <trkpt lat="48.9255" lon="-0.44901">
        <ele>239</ele>
        <time>2022-06-17T19:17:01Z</time>
      </trkpt>
      <trkpt lat="48.92596" lon="-0.44668">
        <ele>235</ele>
        <time>2022-06-17T19:17:01Z</time>
      </trkpt>
      <trkpt lat="48.92604" lon="-0.44597">
        <ele>234</ele>
        <time>2022-06-17T19:17:01Z</time>
      </trkpt>
      <trkpt lat="48.92572" lon="-0.445">
        <ele>237</ele>
        <time>2022-06-17T19:17:01Z</time>
      </trkpt>
      <trkpt lat="48.92463" lon="-0.4442">
        <ele>244</ele>
        <time>2022-06-17T19:17:01Z</time>
      </trkpt>
      <trkpt lat="48.92424" lon="-0.44394">
        <ele>246</ele>
        <time>2022-06-17T19:17:01Z</time>
      </trkpt>
      <trkpt lat="48.92395" lon="-0.44371">
        <ele>247</ele>
        <time>2022-06-17T19:17:01Z</time>
      </trkpt>
      <trkpt lat="48.92322" lon="-0.44371">
        <ele>249</ele>
        <time>2022-06-17T19:17:01Z</time>
      </trkpt>
      <trkpt lat="48.92241" lon="-0.4439">
        <ele>253</ele>
        <time>2022-06-17T19:17:01Z</time>
      </trkpt>
      <trkpt lat="48.92083" lon="-0.44576">
        <ele>254</ele>
        <time>2022-06-17T19:17:01Z</time>
      </trkpt>
      <trkpt lat="48.92094" lon="-0.44648">
        <ele>252</ele>
        <time>2022-06-17T19:17:01Z</time>
      </trkpt>
      <trkpt lat="48.92096" lon="-0.44745">
        <ele>249</ele>
        <time>2022-06-17T19:17:01Z</time>
      </trkpt>
      <trkpt lat="48.92119" lon="-0.44845">
        <ele>248</ele>
        <time>2022-06-17T19:17:01Z</time>
      </trkpt>
      <trkpt lat="48.92144" lon="-0.45068">
        <ele>244</ele>
        <time>2022-06-17T19:17:01Z</time>
      </trkpt>
      <trkpt lat="48.92179" lon="-0.45241">
        <ele>240</ele>
        <time>2022-06-17T19:17:01Z</time>
      </trkpt>
      <trkpt lat="48.92202" lon="-0.45308">
        <ele>238</ele>
        <time>2022-06-17T19:17:01Z</time>
      </trkpt>
      <trkpt lat="48.92253" lon="-0.45399">
        <ele>238</ele>
        <time>2022-06-17T19:17:01Z</time>
      </trkpt>
      <trkpt lat="48.9232" lon="-0.45493">
        <ele>241</ele>
        <time>2022-06-17T19:17:01Z</time>
      </trkpt>
      <trkpt lat="48.92263" lon="-0.45545">
        <ele>240</ele>
        <time>2022-06-17T19:17:01Z</time>
      </trkpt>
      <trkpt lat="48.92193" lon="-0.45628">
        <ele>230</ele>
        <time>2022-06-17T19:17:01Z</time>
      </trkpt>
      <trkpt lat="48.92152" lon="-0.45619">
        <ele>223</ele>
        <time>2022-06-17T19:17:01Z</time>
      </trkpt>
      <trkpt lat="48.92066" lon="-0.45571">
        <ele>209</ele>
        <time>2022-06-17T19:17:01Z</time>
      </trkpt>
      <trkpt lat="48.9204" lon="-0.45546">
        <ele>206</ele>
        <time>2022-06-17T19:17:01Z</time>
      </trkpt>
      <trkpt lat="48.92016" lon="-0.45517">
        <ele>204</ele>
        <time>2022-06-17T19:17:01Z</time>
      </trkpt>
      <trkpt lat="48.9199" lon="-0.45422">
        <ele>205</ele>
        <time>2022-06-17T19:17:01Z</time>
      </trkpt>
      <trkpt lat="48.91972" lon="-0.45371">
        <ele>202</ele>
        <time>2022-06-17T19:17:01Z</time>
      </trkpt>
      <trkpt lat="48.91958" lon="-0.45312">
        <ele>203</ele>
        <time>2022-06-17T19:17:01Z</time>
      </trkpt>
      <trkpt lat="48.91925" lon="-0.45369">
        <ele>190</ele>
        <time>2022-06-17T19:17:01Z</time>
      </trkpt>
      <trkpt lat="48.91917" lon="-0.45422">
        <ele>181</ele>
        <time>2022-06-17T19:17:01Z</time>
      </trkpt>
      <trkpt lat="48.91896" lon="-0.45495">
        <ele>173</ele>
        <time>2022-06-17T19:17:01Z</time>
      </trkpt>
      <trkpt lat="48.91877" lon="-0.45536">
        <ele>168</ele>
        <time>2022-06-17T19:17:01Z</time>
      </trkpt>
      <trkpt lat="48.91813" lon="-0.45697">
        <ele>139</ele>
        <time>2022-06-17T19:17:01Z</time>
      </trkpt>
      <trkpt lat="48.91738" lon="-0.45716">
        <ele>137</ele>
        <time>2022-06-17T19:17:01Z</time>
      </trkpt>
      <trkpt lat="48.91711" lon="-0.4571">
        <ele>138</ele>
        <time>2022-06-17T19:17:01Z</time>
      </trkpt>
      <trkpt lat="48.91627" lon="-0.4565">
        <ele>144</ele>
        <time>2022-06-17T19:17:01Z</time>
      </trkpt>
      <trkpt lat="48.91574" lon="-0.45572">
        <ele>147</ele>
        <time>2022-06-17T19:17:01Z</time>
      </trkpt>
      <trkpt lat="48.91526" lon="-0.45503">
        <ele>145</ele>
        <time>2022-06-17T19:17:01Z</time>
      </trkpt>
      <trkpt lat="48.91462" lon="-0.4531">
        <ele>149</ele>
        <time>2022-06-17T19:17:01Z</time>
      </trkpt>
      <trkpt lat="48.91439" lon="-0.4528">
        <ele>146</ele>
        <time>2022-06-17T19:17:01Z</time>
      </trkpt>
      <trkpt lat="48.91416" lon="-0.4527">
        <ele>140</ele>
        <time>2022-06-17T19:17:01Z</time>
      </trkpt>
      <trkpt lat="48.91387" lon="-0.45274">
        <ele>139</ele>
        <time>2022-06-17T19:17:01Z</time>
      </trkpt>
      <trkpt lat="48.91351" lon="-0.4529">
        <ele>137</ele>
        <time>2022-06-17T19:17:01Z</time>
      </trkpt>
      <trkpt lat="48.91322" lon="-0.4531">
        <ele>135</ele>
        <time>2022-06-17T19:17:01Z</time>
      </trkpt>
      <trkpt lat="48.913" lon="-0.45322">
        <ele>132</ele>
        <time>2022-06-17T19:17:01Z</time>
      </trkpt>
      <trkpt lat="48.91283" lon="-0.45289">
        <ele>133</ele>
        <time>2022-06-17T19:17:01Z</time>
      </trkpt>
      <trkpt lat="48.91261" lon="-0.45222">
        <ele>138</ele>
        <time>2022-06-17T19:17:01Z</time>
      </trkpt>
      <trkpt lat="48.91238" lon="-0.45125">
        <ele>145</ele>
        <time>2022-06-17T19:17:01Z</time>
      </trkpt>
      <trkpt lat="48.91243" lon="-0.45088">
        <ele>149</ele>
        <time>2022-06-17T19:17:01Z</time>
      </trkpt>
      <trkpt lat="48.91262" lon="-0.45046">
        <ele>154</ele>
        <time>2022-06-17T19:17:01Z</time>
      </trkpt>
      <trkpt lat="48.91303" lon="-0.44988">
        <ele>162</ele>
        <time>2022-06-17T19:17:01Z</time>
      </trkpt>
      <trkpt lat="48.91353" lon="-0.44972">
        <ele>167</ele>
        <time>2022-06-17T19:17:01Z</time>
      </trkpt>
      <trkpt lat="48.91386" lon="-0.4494">
        <ele>172</ele>
        <time>2022-06-17T19:17:01Z</time>
      </trkpt>
      <trkpt lat="48.91407" lon="-0.44846">
        <ele>187</ele>
        <time>2022-06-17T19:17:01Z</time>
      </trkpt>
      <trkpt lat="48.91442" lon="-0.44715">
        <ele>202</ele>
        <time>2022-06-17T19:17:01Z</time>
      </trkpt>
      <trkpt lat="48.9147" lon="-0.44474">
        <ele>221</ele>
        <time>2022-06-17T19:17:01Z</time>
      </trkpt>
      <trkpt lat="48.91484" lon="-0.44403">
        <ele>227</ele>
        <time>2022-06-17T19:17:01Z</time>
      </trkpt>
      <trkpt lat="48.9153" lon="-0.44287">
        <ele>235</ele>
        <time>2022-06-17T19:17:01Z</time>
      </trkpt>
      <trkpt lat="48.91571" lon="-0.44206">
        <ele>237</ele>
        <time>2022-06-17T19:17:01Z</time>
      </trkpt>
      <trkpt lat="48.916" lon="-0.44168">
        <ele>238</ele>
        <time>2022-06-17T19:17:01Z</time>
      </trkpt>
      <trkpt lat="48.91623" lon="-0.44144">
        <ele>239</ele>
        <time>2022-06-17T19:17:01Z</time>
      </trkpt>
      <trkpt lat="48.91646" lon="-0.44126">
        <ele>240</ele>
        <time>2022-06-17T19:17:01Z</time>
      </trkpt>
      <trkpt lat="48.91682" lon="-0.44077">
        <ele>242</ele>
        <time>2022-06-17T19:17:01Z</time>
      </trkpt>
      <trkpt lat="48.91663" lon="-0.4405">
        <ele>238</ele>
        <time>2022-06-17T19:17:01Z</time>
      </trkpt>
      <trkpt lat="48.91631" lon="-0.44006">
        <ele>235</ele>
        <time>2022-06-17T19:17:01Z</time>
      </trkpt>
      <trkpt lat="48.91599" lon="-0.44">
        <ele>233</ele>
        <time>2022-06-17T19:17:01Z</time>
      </trkpt>
      <trkpt lat="48.91561" lon="-0.43906">
        <ele>225</ele>
        <time>2022-06-17T19:17:01Z</time>
      </trkpt>
      <trkpt lat="48.91508" lon="-0.43936">
        <ele>222</ele>
        <time>2022-06-17T19:17:01Z</time>
      </trkpt>
      <trkpt lat="48.91472" lon="-0.43974">
        <ele>224</ele>
        <time>2022-06-17T19:17:01Z</time>
      </trkpt>
      <trkpt lat="48.91412" lon="-0.4405">
        <ele>226</ele>
        <time>2022-06-17T19:17:01Z</time>
      </trkpt>
      <trkpt lat="48.9139" lon="-0.44063">
        <ele>224</ele>
        <time>2022-06-17T19:17:01Z</time>
      </trkpt>
      <trkpt lat="48.91372" lon="-0.44084">
        <ele>222</ele>
        <time>2022-06-17T19:17:01Z</time>
      </trkpt>
      <trkpt lat="48.91284" lon="-0.4414">
        <ele>210</ele>
        <time>2022-06-17T19:17:01Z</time>
      </trkpt>
      <trkpt lat="48.9124" lon="-0.44153">
        <ele>205</ele>
        <time>2022-06-17T19:17:01Z</time>
      </trkpt>
      <trkpt lat="48.91175" lon="-0.44168">
        <ele>196</ele>
        <time>2022-06-17T19:17:01Z</time>
      </trkpt>
      <trkpt lat="48.91139" lon="-0.44172">
        <ele>190</ele>
        <time>2022-06-17T19:17:01Z</time>
      </trkpt>
      <trkpt lat="48.91114" lon="-0.4416">
        <ele>186</ele>
        <time>2022-06-17T19:17:01Z</time>
      </trkpt>
      <trkpt lat="48.91045" lon="-0.44165">
        <ele>179</ele>
        <time>2022-06-17T19:17:01Z</time>
      </trkpt>
      <trkpt lat="48.9102" lon="-0.44156">
        <ele>177</ele>
        <time>2022-06-17T19:17:01Z</time>
      </trkpt>
      <trkpt lat="48.90979" lon="-0.44133">
        <ele>180</ele>
        <time>2022-06-17T19:17:01Z</time>
      </trkpt>
      <trkpt lat="48.90966" lon="-0.44099">
        <ele>180</ele>
        <time>2022-06-17T19:17:01Z</time>
      </trkpt>
      <trkpt lat="48.9096" lon="-0.44065">
        <ele>178</ele>
        <time>2022-06-17T19:17:01Z</time>
      </trkpt>
      <trkpt lat="48.90938" lon="-0.43908">
        <ele>165</ele>
        <time>2022-06-17T19:17:01Z</time>
      </trkpt>
      <trkpt lat="48.90894" lon="-0.43879">
        <ele>164</ele>
        <time>2022-06-17T19:17:01Z</time>
      </trkpt>
      <trkpt lat="48.90854" lon="-0.43873">
        <ele>163</ele>
        <time>2022-06-17T19:17:01Z</time>
      </trkpt>
      <trkpt lat="48.90814" lon="-0.43878">
        <ele>162</ele>
        <time>2022-06-17T19:17:01Z</time>
      </trkpt>
      <trkpt lat="48.90764" lon="-0.43894">
        <ele>161</ele>
        <time>2022-06-17T19:17:01Z</time>
      </trkpt>
      <trkpt lat="48.90693" lon="-0.43924">
        <ele>156</ele>
        <time>2022-06-17T19:17:01Z</time>
      </trkpt>
      <trkpt lat="48.90643" lon="-0.43956">
        <ele>156</ele>
        <time>2022-06-17T19:17:01Z</time>
      </trkpt>
      <trkpt lat="48.90562" lon="-0.44028">
        <ele>151</ele>
        <time>2022-06-17T19:17:01Z</time>
      </trkpt>
      <trkpt lat="48.90523" lon="-0.44055">
        <ele>146</ele>
        <time>2022-06-17T19:17:01Z</time>
      </trkpt>
      <trkpt lat="48.90437" lon="-0.44126">
        <ele>134</ele>
        <time>2022-06-17T19:17:01Z</time>
      </trkpt>
      <trkpt lat="48.90397" lon="-0.4415">
        <ele>130</ele>
        <time>2022-06-17T19:17:01Z</time>
      </trkpt>
      <trkpt lat="48.90396" lon="-0.44209">
        <ele>132</ele>
        <time>2022-06-17T19:17:01Z</time>
      </trkpt>
      <trkpt lat="48.90379" lon="-0.44358">
        <ele>132</ele>
        <time>2022-06-17T19:17:01Z</time>
      </trkpt>
      <trkpt lat="48.90367" lon="-0.44406">
        <ele>130</ele>
        <time>2022-06-17T19:17:01Z</time>
      </trkpt>
      <trkpt lat="48.90301" lon="-0.44538">
        <ele>122</ele>
        <time>2022-06-17T19:17:01Z</time>
      </trkpt>
      <trkpt lat="48.90266" lon="-0.44574">
        <ele>118</ele>
        <time>2022-06-17T19:17:01Z</time>
      </trkpt>
      <trkpt lat="48.90239" lon="-0.44637">
        <ele>115</ele>
        <time>2022-06-17T19:17:01Z</time>
      </trkpt>
      <trkpt lat="48.90167" lon="-0.44765">
        <ele>107</ele>
        <time>2022-06-17T19:17:01Z</time>
      </trkpt>
      <trkpt lat="48.90113" lon="-0.44849">
        <ele>100</ele>
        <time>2022-06-17T19:17:01Z</time>
      </trkpt>
      <trkpt lat="48.90086" lon="-0.44898">
        <ele>98</ele>
        <time>2022-06-17T19:17:01Z</time>
      </trkpt>
      <trkpt lat="48.90061" lon="-0.4496">
        <ele>94</ele>
        <time>2022-06-17T19:17:01Z</time>
      </trkpt>
      <trkpt lat="48.90023" lon="-0.45043">
        <ele>89</ele>
        <time>2022-06-17T19:17:01Z</time>
      </trkpt>
      <trkpt lat="48.90012" lon="-0.45084">
        <ele>88</ele>
        <time>2022-06-17T19:17:01Z</time>
      </trkpt>
      <trkpt lat="48.90006" lon="-0.45141">
        <ele>85</ele>
        <time>2022-06-17T19:17:01Z</time>
      </trkpt>
      <trkpt lat="48.89994" lon="-0.45212">
        <ele>82</ele>
        <time>2022-06-17T19:17:01Z</time>
      </trkpt>
      <trkpt lat="48.90064" lon="-0.45208">
        <ele>83</ele>
        <time>2022-06-17T19:17:01Z</time>
      </trkpt>
      <trkpt lat="48.90094" lon="-0.4521">
        <ele>83</ele>
        <time>2022-06-17T19:17:01Z</time>
      </trkpt>
      <trkpt lat="48.90145" lon="-0.4522">
        <ele>81</ele>
        <time>2022-06-17T19:17:01Z</time>
      </trkpt>
      <trkpt lat="48.90281" lon="-0.45129">
        <ele>87</ele>
        <time>2022-06-17T19:17:01Z</time>
      </trkpt>
      <trkpt lat="48.90303" lon="-0.45101">
        <ele>88</ele>
        <time>2022-06-17T19:17:01Z</time>
      </trkpt>
      <trkpt lat="48.90332" lon="-0.45037">
        <ele>92</ele>
        <time>2022-06-17T19:17:01Z</time>
      </trkpt>
      <trkpt lat="48.90356" lon="-0.45019">
        <ele>95</ele>
        <time>2022-06-17T19:17:01Z</time>
      </trkpt>
      <trkpt lat="48.90369" lon="-0.45057">
        <ele>94</ele>
        <time>2022-06-17T19:17:01Z</time>
      </trkpt>
      <trkpt lat="48.90395" lon="-0.45051">
        <ele>97</ele>
        <time>2022-06-17T19:17:01Z</time>
      </trkpt>
      <trkpt lat="48.90422" lon="-0.45023">
        <ele>101</ele>
        <time>2022-06-17T19:17:01Z</time>
      </trkpt>
      <trkpt lat="48.9047" lon="-0.45025">
        <ele>105</ele>
        <time>2022-06-17T19:17:01Z</time>
      </trkpt>
      <trkpt lat="48.90503" lon="-0.45035">
        <ele>108</ele>
        <time>2022-06-17T19:17:01Z</time>
      </trkpt>
      <trkpt lat="48.90574" lon="-0.45046">
        <ele>112</ele>
        <time>2022-06-17T19:17:01Z</time>
      </trkpt>
      <trkpt lat="48.90628" lon="-0.45045">
        <ele>119</ele>
        <time>2022-06-17T19:17:01Z</time>
      </trkpt>
      <trkpt lat="48.90757" lon="-0.45033">
        <ele>136</ele>
        <time>2022-06-17T19:17:01Z</time>
      </trkpt>
      <trkpt lat="48.90782" lon="-0.45035">
        <ele>140</ele>
        <time>2022-06-17T19:17:01Z</time>
      </trkpt>
      <trkpt lat="48.90825" lon="-0.45067">
        <ele>141</ele>
        <time>2022-06-17T19:17:01Z</time>
      </trkpt>
      <trkpt lat="48.90865" lon="-0.45111">
        <ele>140</ele>
        <time>2022-06-17T19:17:01Z</time>
      </trkpt>
      <trkpt lat="48.90889" lon="-0.45118">
        <ele>143</ele>
        <time>2022-06-17T19:17:01Z</time>
      </trkpt>
      <trkpt lat="48.90913" lon="-0.45119">
        <ele>146</ele>
        <time>2022-06-17T19:17:01Z</time>
      </trkpt>
      <trkpt lat="48.90939" lon="-0.45107">
        <ele>147</ele>
        <time>2022-06-17T19:17:01Z</time>
      </trkpt>
      <trkpt lat="48.90969" lon="-0.4508">
        <ele>146</ele>
        <time>2022-06-17T19:17:01Z</time>
      </trkpt>
      <trkpt lat="48.90976" lon="-0.45046">
        <ele>146</ele>
        <time>2022-06-17T19:17:01Z</time>
      </trkpt>
      <trkpt lat="48.90944" lon="-0.45057">
        <ele>150</ele>
        <time>2022-06-17T19:17:01Z</time>
      </trkpt>
      <trkpt lat="48.90857" lon="-0.44884">
        <ele>169</ele>
        <time>2022-06-17T19:17:01Z</time>
      </trkpt>
      <trkpt lat="48.90839" lon="-0.44816">
        <ele>179</ele>
        <time>2022-06-17T19:17:01Z</time>
      </trkpt>
      <trkpt lat="48.90804" lon="-0.4474">
        <ele>183</ele>
        <time>2022-06-17T19:17:01Z</time>
      </trkpt>
      <trkpt lat="48.90776" lon="-0.44637">
        <ele>187</ele>
        <time>2022-06-17T19:17:01Z</time>
      </trkpt>
      <trkpt lat="48.9075" lon="-0.44596">
        <ele>190</ele>
        <time>2022-06-17T19:17:01Z</time>
      </trkpt>
      <trkpt lat="48.90746" lon="-0.44483">
        <ele>194</ele>
        <time>2022-06-17T19:17:01Z</time>
      </trkpt>
      <trkpt lat="48.9072" lon="-0.44425">
        <ele>192</ele>
        <time>2022-06-17T19:17:01Z</time>
      </trkpt>
      <trkpt lat="48.9071" lon="-0.44366">
        <ele>195</ele>
        <time>2022-06-17T19:17:01Z</time>
      </trkpt>
      <trkpt lat="48.90707" lon="-0.44327">
        <ele>197</ele>
        <time>2022-06-17T19:17:01Z</time>
      </trkpt>
      <trkpt lat="48.90707" lon="-0.44259">
        <ele>201</ele>
        <time>2022-06-17T19:17:01Z</time>
      </trkpt>
      <trkpt lat="48.9072" lon="-0.44204">
        <ele>205</ele>
        <time>2022-06-17T19:17:01Z</time>
      </trkpt>
      <trkpt lat="48.90752" lon="-0.44184">
        <ele>210</ele>
        <time>2022-06-17T19:17:01Z</time>
      </trkpt>
      <trkpt lat="48.90794" lon="-0.44178">
        <ele>210</ele>
        <time>2022-06-17T19:17:01Z</time>
      </trkpt>
      <trkpt lat="48.90822" lon="-0.44173">
        <ele>211</ele>
        <time>2022-06-17T19:17:01Z</time>
      </trkpt>
      <trkpt lat="48.90849" lon="-0.44167">
        <ele>208</ele>
        <time>2022-06-17T19:17:01Z</time>
      </trkpt>
      <trkpt lat="48.90863" lon="-0.44233">
        <ele>204</ele>
        <time>2022-06-17T19:17:01Z</time>
      </trkpt>
      <trkpt lat="48.90923" lon="-0.44303">
        <ele>196</ele>
        <time>2022-06-17T19:17:01Z</time>
      </trkpt>
      <trkpt lat="48.90935" lon="-0.44404">
        <ele>186</ele>
        <time>2022-06-17T19:17:01Z</time>
      </trkpt>
      <trkpt lat="48.90952" lon="-0.44512">
        <ele>174</ele>
        <time>2022-06-17T19:17:01Z</time>
      </trkpt>
      <trkpt lat="48.91019" lon="-0.44473">
        <ele>174</ele>
        <time>2022-06-17T19:17:01Z</time>
      </trkpt>
      <trkpt lat="48.91087" lon="-0.44483">
        <ele>169</ele>
        <time>2022-06-17T19:17:01Z</time>
      </trkpt>
      <trkpt lat="48.9111" lon="-0.44498">
        <ele>170</ele>
        <time>2022-06-17T19:17:01Z</time>
      </trkpt>
      <trkpt lat="48.91106" lon="-0.44564">
        <ele>166</ele>
        <time>2022-06-17T19:17:01Z</time>
      </trkpt>
      <trkpt lat="48.91084" lon="-0.44575">
        <ele>164</ele>
        <time>2022-06-17T19:17:01Z</time>
      </trkpt>
      <trkpt lat="48.91013" lon="-0.44647">
        <ele>156</ele>
        <time>2022-06-17T19:17:01Z</time>
      </trkpt>
      <trkpt lat="48.90967" lon="-0.4469">
        <ele>153</ele>
        <time>2022-06-17T19:17:01Z</time>
      </trkpt>
      <trkpt lat="48.90929" lon="-0.44788">
        <ele>157</ele>
        <time>2022-06-17T19:17:01Z</time>
      </trkpt>
      <trkpt lat="48.9093" lon="-0.44853">
        <ele>157</ele>
        <time>2022-06-17T19:17:01Z</time>
      </trkpt>
      <trkpt lat="48.90978" lon="-0.45037">
        <ele>146</ele>
        <time>2022-06-17T19:17:01Z</time>
      </trkpt>
      <trkpt lat="48.90963" lon="-0.45075">
        <ele>147</ele>
        <time>2022-06-17T19:17:01Z</time>
      </trkpt>
      <trkpt lat="48.90955" lon="-0.4513">
        <ele>146</ele>
        <time>2022-06-17T19:17:01Z</time>
      </trkpt>
      <trkpt lat="48.90941" lon="-0.45205">
        <ele>145</ele>
        <time>2022-06-17T19:17:01Z</time>
      </trkpt>
      <trkpt lat="48.90941" lon="-0.45254">
        <ele>144</ele>
        <time>2022-06-17T19:17:01Z</time>
      </trkpt>
      <trkpt lat="48.90962" lon="-0.45351">
        <ele>148</ele>
        <time>2022-06-17T19:17:01Z</time>
      </trkpt>
      <trkpt lat="48.90964" lon="-0.4542">
        <ele>148</ele>
        <time>2022-06-17T19:17:01Z</time>
      </trkpt>
      <trkpt lat="48.9098" lon="-0.45478">
        <ele>144</ele>
        <time>2022-06-17T19:17:01Z</time>
      </trkpt>
      <trkpt lat="48.91039" lon="-0.45594">
        <ele>136</ele>
        <time>2022-06-17T19:17:01Z</time>
      </trkpt>
      <trkpt lat="48.91037" lon="-0.45656">
        <ele>126</ele>
        <time>2022-06-17T19:17:01Z</time>
      </trkpt>
      <trkpt lat="48.91045" lon="-0.45691">
        <ele>124</ele>
        <time>2022-06-17T19:17:01Z</time>
      </trkpt>
      <trkpt lat="48.9106" lon="-0.45718">
        <ele>127</ele>
        <time>2022-06-17T19:17:01Z</time>
      </trkpt>
      <trkpt lat="48.91071" lon="-0.45783">
        <ele>125</ele>
        <time>2022-06-17T19:17:01Z</time>
      </trkpt>
      <trkpt lat="48.91075" lon="-0.45926">
        <ele>117</ele>
        <time>2022-06-17T19:17:01Z</time>
      </trkpt>
      <trkpt lat="48.91085" lon="-0.46003">
        <ele>120</ele>
        <time>2022-06-17T19:17:01Z</time>
      </trkpt>
      <trkpt lat="48.91093" lon="-0.46054">
        <ele>113</ele>
        <time>2022-06-17T19:17:01Z</time>
      </trkpt>
      <trkpt lat="48.91106" lon="-0.46087">
        <ele>110</ele>
        <time>2022-06-17T19:17:01Z</time>
      </trkpt>
      <trkpt lat="48.91104" lon="-0.46159">
        <ele>104</ele>
        <time>2022-06-17T19:17:01Z</time>
      </trkpt>
      <trkpt lat="48.91127" lon="-0.46207">
        <ele>104</ele>
        <time>2022-06-17T19:17:01Z</time>
      </trkpt>
      <trkpt lat="48.91127" lon="-0.46249">
        <ele>102</ele>
        <time>2022-06-17T19:17:01Z</time>
      </trkpt>
      <trkpt lat="48.91125" lon="-0.46321">
        <ele>99</ele>
        <time>2022-06-17T19:17:01Z</time>
      </trkpt>
      <trkpt lat="48.91131" lon="-0.46392">
        <ele>100</ele>
        <time>2022-06-17T19:17:01Z</time>
      </trkpt>
      <trkpt lat="48.91122" lon="-0.46479">
        <ele>95</ele>
        <time>2022-06-17T19:17:01Z</time>
      </trkpt>
      <trkpt lat="48.91125" lon="-0.46534">
        <ele>94</ele>
        <time>2022-06-17T19:17:01Z</time>
      </trkpt>
      <trkpt lat="48.91118" lon="-0.46568">
        <ele>91</ele>
        <time>2022-06-17T19:17:01Z</time>
      </trkpt>
      <trkpt lat="48.91135" lon="-0.4661">
        <ele>94</ele>
        <time>2022-06-17T19:17:01Z</time>
      </trkpt>
      <trkpt lat="48.91136" lon="-0.46715">
        <ele>93</ele>
        <time>2022-06-17T19:17:01Z</time>
      </trkpt>
      <trkpt lat="48.9113" lon="-0.46758">
        <ele>91</ele>
        <time>2022-06-17T19:17:01Z</time>
      </trkpt>
      <trkpt lat="48.91114" lon="-0.4681">
        <ele>86</ele>
        <time>2022-06-17T19:17:01Z</time>
      </trkpt>
      <trkpt lat="48.9111" lon="-0.46864">
        <ele>88</ele>
        <time>2022-06-17T19:17:01Z</time>
      </trkpt>
      <trkpt lat="48.9109" lon="-0.46944">
        <ele>88</ele>
        <time>2022-06-17T19:17:01Z</time>
      </trkpt>
      <trkpt lat="48.9107" lon="-0.4699">
        <ele>80</ele>
        <time>2022-06-17T19:17:01Z</time>
      </trkpt>
      <trkpt lat="48.91079" lon="-0.47028">
        <ele>81</ele>
        <time>2022-06-17T19:17:01Z</time>
      </trkpt>
      <trkpt lat="48.91095" lon="-0.47065">
        <ele>80</ele>
        <time>2022-06-17T19:17:01Z</time>
      </trkpt>
      <trkpt lat="48.91043" lon="-0.47128">
        <ele>58</ele>
        <time>2022-06-17T19:17:01Z</time>
      </trkpt>
      <trkpt lat="48.91034" lon="-0.47171">
        <ele>52</ele>
        <time>2022-06-17T19:17:01Z</time>
      </trkpt>
      <trkpt lat="48.90875" lon="-0.47116">
        <ele>47</ele>
        <time>2022-06-17T19:17:01Z</time>
      </trkpt>
      <trkpt lat="48.90884" lon="-0.47074">
        <ele>48</ele>
        <time>2022-06-17T19:17:01Z</time>
      </trkpt>
      <trkpt lat="48.90884" lon="-0.47039">
        <ele>47</ele>
        <time>2022-06-17T19:17:01Z</time>
      </trkpt>
      <trkpt lat="48.90896" lon="-0.46971">
        <ele>44</ele>
        <time>2022-06-17T19:17:01Z</time>
      </trkpt>
    </trkseg>
  </trk>
</gpx>